User: anonymous   Login
Location: Brede
(50.9167°N, 0.6000°E)
Time: 01:58:08
(UTC+00:00)
Language:

Cosmos 1758 - Orbit

View from above orbital plane
View from above orbital plane
View from above satellite
View from above satellite

Ground track
Ground track

The orbit data is extracted from the following two-line orbital elements,

1 16791U 86046A   20302.43277489 +.00000038 +00000-0 +60568-6 0  9991
2 16791 082.4678 273.6598 0015445 218.7764 141.2355 15.05122233870263
Epoch (UTC): 28 October 2020 10:23:11
Eccentricity: 0.0015445
inclination: 82.4678°
perigee height: 540 km
apogee height: 562 km
right ascension of ascending node: 273.6598°
argument of perigee: 218.7764°
revolutions per day: 15.05122233
mean anomaly at epoch: 141.2355°
orbit number at epoch: 87026

The dashed part of the orbit path shows where the satellite is in the earth's shadow,  

DLR